Regional Weather Roundup
Issued by NWS San Diego, CA

Home | Current Version | Previous Version | Text Only | Print | Product List | Glossary On
Versions: 1 2 3 4 5 6 7 8 9 10 11 12 13 14 15 16 17 18 19 20 21 22 23 24 25 26 27 28 29 30 31 32 33 34 35 36 37 38 39 40 41 42 43 44 45 46 47 48 49 50
000
ASUS46 KSGX 271710
RWRSGX

SAN DIEGO HOURLY WEATHER ROUNDUP
NATIONAL WEATHER SERVICE SAN DIEGO CA
900 AM PST SAT DEC 27 2014

NOTE: "FAIR" INDICATES FEW OR NO CLOUDS BELOW 12,000 FEET WITH NO
SIGNIFICANT WEATHER AND/OR OBSTRUCTIONS TO VISIBILITY.

CAZ042-043-060-061-PZZ750-775-271800-

GREATER SAN DIEGO AREA

CITY           SKY/WX    TMP DP  RH WIND       PRES   REMARKS
LINDBERGH FLD  SUNNY     53  28  38 CALM      30.32R
POINT LOMA       N/A     54  36  49 E3          N/A
NATIONAL CITY    N/A     50  28  42 CALM      30.32R
CHULA VISTA      N/A     47  32  55 CALM      30.23R
IMPERIAL BEACH SUNNY     55  24  30 SE7       30.31R
BROWN FIELD    SUNNY     53  16  23 SE7       30.29S
MIRAMAR MCAS   SUNNY     53  20  27 SE6       30.29R
MONTGOMERY FLD SUNNY     50  20  30 E3        30.30R

$$

NORTH SAN DIEGO COUNTY

CITY           SKY/WX    TMP DP  RH WIND       PRES   REMARKS
CAMP PENDLETON SUNNY     53  17  24 NE8       30.31R
OCEANSIDE AP   SUNNY     47  24  40 NE7       30.30R
OCEANSIDE HBR    N/A     47  27  46 E10       30.34R
VISTA            N/A     47  26  43 CALM      30.30R
CARLSBAD       SUNNY     50  20  30 CALM      30.29R
DEL MAR          N/A     52  27  38 CALM      30.33R
LA JOLLA SCRIP   N/A     53  23  30 CALM      30.28R
FALLBROOK        N/A     49  23  35 CALM      30.31S
ESCONDIDO        N/A     52  30  43 CALM      30.32R
POWAY            N/A     53  20  27 CALM      30.33R

$$

EAST SAN DIEGO COUNTY

CITY           SKY/WX    TMP DP  RH WIND       PRES   REMARKS
RAMONA         SUNNY     50  13  22 E7        30.28R
SANTEE LAKES     N/A     46  27  46 CALM      30.32S
LA MESA          N/A     53  22  29 CALM      30.24S
JAMUL            N/A     51  23  34 CALM      30.31R
DESCANSO N       N/A     41  12  30 NE9       30.20R
MT. LAGUNA OBS   N/A     24   5  42 N28       29.74R WCI   8
CAMPO            N/A     43   9  24 NE30G39   30.21R

$$

ORANGE COUNTY AND THE LOS ANGELES BASIN

CITY           SKY/WX    TMP DP  RH WIND       PRES   REMARKS
JOHN WAYNE AP  SUNNY     60   9  13 E15G23    30.30R
LAGUNA BEACH     N/A     50  22  33 NW2       30.27R
LAKE FOREST FR   N/A     51  11  19 E1        30.21R
SANTA ANA        N/A     58  18  21 NE1       30.26R
HUNTINGTON BCH   N/A     57  20  23 NE6       30.32R
LOS ALAMITOS   SUNNY     52  23  32 N6        30.31R
FULLERTON      SUNNY     54  18  24 CALM      30.31R
LONG BEACH     SUNNY     50  28  42 N3        30.31R
L.A. AP        MOSUNNY   50  24  36 E3        30.32R
L.A. DOWNTOWN  SUNNY     48  27  44 CALM      30.31R

$$

THE INLAND EMPIRE

CITY           SKY/WX    TMP DP  RH WIND       PRES   REMARKS
CORONA         SUNNY     55  11  17 E15       30.33R
CHINO          MOSUNNY   48  26  42 NW6       30.31R
ONTARIO        MOSUNNY   52  20  28 NE8       30.30R
SAN BERNARDINO SUNNY     46  16  29 CALM      30.33R
RIVERSIDE AP   SUNNY     53   7  15 NE9G26    30.33R
RIV CYN CREST    N/A     49  27  42 NW2         N/A
MORENO VALLEY    N/A     46  24  42 CALM      29.50R
MARCH ARB      SUNNY     48  11  22 NE14G22   30.32R
HORSETHIEF CYN   N/A     48   9  20 N5        30.34R
PERRIS           N/A     47  19  33 NE6       30.31R
MENIFEE          N/A     47  28  47 SE5       30.37R
HEMET EAST       N/A     41  12  30 CALM      30.35R
FRENCH VALLEY  FAIR      45  21  39 N7        30.30R
TEMECULA         N/A     40  27  59 CALM      30.29R

$$

SAN BERNARDINO AND RIVERSIDE COUNTY MOUNTAINS

CITY           SKY/WX    TMP DP  RH WIND       PRES   REMARKS
BIG BEAR AP    SUNNY     28  -6  22 SE10      30.27S WCI  19
ANGELUS OAKS     N/A     32  -3  21 CALM      30.37R
PINE COVE        N/A     43 -17   7 N3        30.38R

$$

SOUTHERN DESERT INCLUDING THE COACHELLA VALLEY

CITY           SKY/WX    TMP DP  RH WIND       PRES   REMARKS
PALM SPRINGS   SUNNY     54   8  16 CALM      30.42R
THOUSAND PALMS   N/A     53  16  23 E3        30.37R
PALM DESERT      N/A     53  17  24 CALM        N/A
THERMAL        SUNNY     54  14  20 NW7       30.39R
BLYTHE         SUNNY     51  12  21 N13       30.37R
IMPERIAL AP    SUNNY     53  19  26 NW7       30.39R
EL CENTRO NAS  SUNNY     54  21  27 N13       30.39R
YUMA AZ        SUNNY     53  16  23 N14       30.35S
MEXICALI       SUNNY     50  18  27 NW6       30.38

$$

UPPER DESERT

CITY           SKY/WX    TMP DP  RH WIND       PRES   REMARKS
VICTORVILLE AP   N/A     36  18  48 CALM      30.39R
HESPERIA         N/A     38  13  37 N3        30.60R
PALMDALE       SUNNY     36  18  48 NE10      30.39R WCI  28
LANCASTER      SUNNY     35  20  54 NE5       30.41R WCI  31
EDWARDS AFB    MOSUNNY   33  20  59 N5        30.40R WCI  28
DAGGETT        SUNNY     40  14  34 CALM      30.43R
29 PALMS N     SUNNY     38  12  34 E5        30.47R WCI  34
NEEDLES        SUNNY     49  16  26 NE20      30.38R

$$

REGIONAL REPORTS

CITY           SKY/WX    TMP DP  RH WIND       PRES   REMARKS
SANTA BARBARA  SUNNY     49  37  63 CALM      30.31R
SANDBERG       SUNNY     32  10  40 E21G32    30.31R WCI  20
MT. WILSON       N/A     39   0  19 MISG        N/A
LAS VEGAS NV   MOSUNNY   42  11  28 N5        30.38R
PHOENIX AZ     SUNNY     44  24  45 CALM      30.29R
TIJUANA        SUNNY     54  12  19 E6        30.32R
ENSENADA NW      N/A     57  32  38 SW2       30.27R

$$

OFFSHORE ISLANDS

CITY           SKY/WX    TMP DP  RH WIND       PRES   REMARKS
CATALINA ARPT  SUNNY     51  26  37 E10       30.30R
SAN NICOLAS IS SUNNY    N/A N/A N/A NE10      30.30R

$$

MARINE AND OFFSHORE BUOY REPORTS

STATION/POSITION SKY/WX   TEMP    WIND        PRES    SWELL
                          AIR SEA DIR/SP/G            HT/PER/DIR
                          (F)     (DEG/KT/KT) (MB)    (FT/S/D)
TANNER BANKS               61 63  120/ 12/ 14 1025.4R   5/290/11
S CLEMENTE BASIN           59 64   80/  6/  8 1025.9R   3/280/14
SAN NICOLAS IS.               62                N/A     3/300/13
SO. S. ROSA ISLA           58 58   80/ 16/ 19 1025.6R   5/11
W. S. BARBARA CH           57 61  120/ 17/ 19 1025.6R   5/280/12
S. MONICA BASIN            57 63   60/ 10/ 12 1026.7R   2/ 20/13
S PEDRO CHANNEL               63                N/A     2/270/13
DANA POINT                    63                N/A     2/290/13
CMP PENDLETON NS              63                N/A     2/240/13
OCEANSIDE OFFSHR              64                N/A     2/260/12
TORREY PINES OTR              64                N/A     2/260/13
LA JOLLA 1                 53 63  170/  4/  4 1025.6R
MISSION BAY BUOY              63                N/A     2/270/13
SAN DIEGO BAY                 63              1026.4R
POINT LOMA SOUTH              64                N/A     2/260/13

$$



USA.gov is the U.S. government's official web portal to all federal, state and local government web resources and services.